Location: Bellflower
(33.8817°N, 118.1170°W)
Time: 12:52:29
(UTC+00:00)

ALOS - Pass Details

Date: 23 November 2020
Orbit: 683 x 685 km, 97.9° (Epoch: 22 January)

Event Time Altitude Azimuth Distance (km) Brightness Sun altitude
Rises 13:13:24 0° 356° (N) 3,056 5.4 -16.4°
Reaches altitude 10° 13:15:59 10° 343° (NNW) 2,136 4.5 -15.9°
Enters shadow 13:19:23 24° 297° (WNW) 1,408 3.3 -15.2°
Exits shadow 13:22:39 14° 244° (WSW) 1,887 4.1 -14.5°
Drops below altitude 10° 13:23:26 10° 237° (WSW) 2,125 4.4 -14.4°
Sets 13:26:00 0° 224° (SW) 3,036 5.3 -13.9°
